Lid_Strength_Index
1 3 5 5 10 12 15 13 10 10 10 8 7 7 8 8 10 12 3 1 0 0 -0 -1 -1 -1 -1 -1 -1 -1 -2 -2 -2 -2 -2 -2 -2 -2 -2 -2 -2 -2 -2 -2 -2 -2 -2 -2 -2
3 4 6 8 12 15 14 13 11 9 7 6 6 7 8 10 5 4 3 1 -0 -0 -0 -0 -0 -1 -1 -1 -1 -1 -2 -1 -2 -2 -2 -2 -2 -2 -2 -2 -3 -2 -2 -2 -2 -2 -2 -2 -1
5 5 8 9 12 15 14 12 9 8 7 7 8 6 7 8 5 4 2 0 -0 -0 -0 -0 -0 -1 -1 -1 -1 -1 -2 -2 -1 -1 -2 -2 -2 -2 -2 -3 -3 -2 -1 -2 -2 -2 -2 -1 -1
8 8 9 11 14 11 11 10 8 8 8 7 7 9 6 3 4 2 1 0 0 -0 -0 -0 -1 -1 -1 -1 -1 -1 -1 -2 -2 -2 -2 -2 -2 -2 -3 -3 -3 -3 -1 -2 -2 -2 -1 -1 -1
8 11 13 13 12 11 11 8 8 8 8 8 7 9 9 4 2 1 1 1 1 0 -0 -0 -1 -1 -1 -1 -2 -2 -2 -2 -2 -2 -2 -2 -2 -3 -3 -3 -3 -3 -2 -2 -2 -2 -1 -1 -1
10 11 15 15 13 12 9 8 8 8 7 8 8 8 7 3 3 2 1 1 0 0 -0 -0 1 -0 -1 -1 -1 -1 -1 -2 -2 -2 -2 -2 -3 -3 -2 -3 -2 -3 -3 -2 -2 -2 -2 -1 -1
10 12 14 14 14 13 9 8 8 8 8 8 6 9 8 5 2 2 1 1 1 0 -0 0 -0 0 0 -0 -1 -1 -1 -1 -2 -2 -2 -2 -2 -2 -3 -3 -2 -2 -2 -2 -2 -2 -1 -1 -1
9 11 13 14 14 14 9 8 7 8 8 6 5 9 9 4 2 2 1 1 1 0 0 0 0 -0 0 0 1 0 -0 -1 -1 -1 -1 -1 -1 -2 -1 -1 -2 -2 -2 -2 -2 -3 -2 -1 -1
8 13 15 14 13 13 9 9 7 7 7 7 6 6 4 3 3 3 3 3 2 1 1 0 1 0 0 0 1 1 1 0 0 0 1 1 0 -0 -0 -0 -1 -3 -2 -2 -2 -2 -2 -2 -1
11 15 14 12 12 11 9 9 9 8 8 8 7 5 3 3 3 4 4 4 3 2 1 1 1 1 0 -0 0 0 0 0 1 1 1 0 0 0 -0 1 0 -1 -1 -2 -2 -2 -2 -1 1
10 13 11 11 8 7 8 8 8 9 9 7 8 6 4 4 4 4 4 3 3 2 1 1 1 1 1 1 1 1 1 1 1 1 1 1 1 1 1 2 1 1 1 1 -0 0 0 1 1
11 10 10 9 8 8 8 7 8 9 8 6 5 4 4 5 4 4 4 4 3 3 2 1 1 1 0 0 1 1 1 1 1 1 1 1 1 2 2 2 2 2 2 2 2 2 2 1 1
12 12 10 9 9 9 7 9 8 9 7 6 4 4 5 4 4 3 3 3 3 3 2 1 1 1 0 0 -0 0 1 1 2 1 1 1 1 2 2 2 3 2 2 2 2 2 2 1 1
12 10 11 11 10 9 9 10 9 8 8 6 5 5 5 5 4 4 4 4 4 2 2 1 1 1 1 1 1 0 -0 -0 0 1 1 1 1 2 2 2 2 2 3 2 2 2 2 2 2
11 13 12 12 11 10 10 13 11 9 8 9 6 6 5 4 4 4 3 3 3 3 2 2 2 1 1 2 1 1 1 -0 0 0 0 1 1 2 2 2 2 2 2 2 2 2 3 3 3
14 14 17 15 11 10 12 17 13 11 12 10 9 8 6 5 4 3 3 3 3 3 3 2 1 1 1 2 1 1 1 1 0 -0 -0 -0 0 1 2 2 2 2 2 2 2 2 3 3 3
17 20 18 16 13 12 13 16 13 13 13 13 13 10 8 8 7 4 3 3 3 3 2 2 1 1 2 1 1 2 2 1 0 0 -0 -0 0 1 1 2 2 2 2 3 2 3 3 4 3
18 18 18 18 15 13 14 14 13 12 13 13 13 13 11 9 7 6 4 3 3 3 2 2 1 1 1 1 1 1 2 1 1 1 0 -0 -0 1 1 1 1 2 3 3 4 3 4 3 3
14 16 18 17 15 14 15 14 12 12 14 14 13 13 12 11 9 10 7 4 3 3 3 2 2 2 1 2 2 2 2 2 2 1 1 1 0 0 0 1 2 2 2 2 3 3 4 4 4
13 15 17 15 13 15 16 16 14 13 13 13 12 13 13 12 10 9 9 6 5 4 3 3 2 2 2 1 1 2 2 2 2 1 2 1 1 0 -0 0 1 1 1 1 2 3 3 3 4
13 15 15 15 14 15 15 17 15 13 13 12 12 11 11 12 11 10 10 9 4 5 5 4 3 3 2 2 2 3 3 4 3 3 2 2 2 2 1 1 0 0 0 1 1 2 2 3 2
16 13 13 13 14 19 18 23 18 15 14 14 13 13 11 11 10 9 9 9 8 6 7 7 7 6 3 2 2 3 2 3 2 2 2 2 3 2 2 1 2 1 1 1 1 1 1 1 3
15 12 12 13 15 17 20 21 20 17 16 14 13 13 12 11 10 9 9 9 8 8 8 7 6 5 4 3 2 3 3 2 2 3 3 3 3 2 2 2 2 1 1 1 2 2 1 1 2
10 13 13 14 16 21 19 19 21 17 15 13 13 13 12 12 11 10 9 8 8 8 7 7 6 6 5 4 2 2 3 3 4 4 5 4 3 3 2 2 2 2 2 2 1 1 1 1 1
12 15 23 23 25 22 18 19 19 15 13 13 13 12 11 11 10 9 9 8 8 7 6 5 5 5 5 5 5 2 3 3 3 3 4 5 5 4 2 1 2 2 2 2 2 1 1 1 1
12 14 18 23 22 20 17 20 18 13 11 11 11 11 11 11 10 10 9 8 7 6 6 5 5 6 6 5 5 4 3 4 5 5 5 5 4 4 3 2 2 2 2 1 1 0 1 1 1
13 14 12 16 21 21 18 17 14 13 12 12 11 12 12 11 11 11 10 9 8 7 7 6 7 7 8 7 7 8 8 7 7 7 6 7 8 7 7 7 7 6 5 4 3 2 2 1 1
11 10 16 16 25 26 20 20 18 16 14 12 12 11 11 12 12 11 9 8 8 9 9 8 9 9 8 8 8 9 9 8 8 8 8 8 9 8 8 8 8 7 7 7 7 7 7 7 5
13 14 13 13 17 21 23 21 16 14 14 14 13 12 11 11 11 10 10 10 10 10 10 10 10 10 10 9 10 10 10 10 10 10 10 10 9 8 8 8 9 8 9 9 9 9 8 9 8
10 13 13 17 20 18 18 19 13 13 13 13 12 12 11 12 11 10 10 10 11 11 11 12 12 12 12 12 13 13 13 13 13 13 13 12 12 11 11 10 10 10 9 9 9 10 10 10 10